Location: Noordwijk
(52.2400°N, 4.4500°E)
Time: 11:54:48
(UTC+00:00)

VELOX 1 - Pass Details

Date: 03 December 2022
Orbit: 621 x 635 km, 98.4° (Epoch: 29 January)

Event Time Altitude Azimuth Distance (km) Brightness Sun altitude
Exits shadow 19:40:58 15° 303° (WNW) 1,693 ? -36.9°
Drops below altitude 10° 19:43:14 10° 271° (W) 1,997 ? -37.3°
Sets 19:46:13 0° 248° (WSW) 2,897 ? -37.7°
